Вернуться в каталог

DELTA 1 DEB

АктивенSSO
NORAD 7138·DEBRIS·🇺🇸 United States

Запущен Nov 6, 1973 с Vandenberg Space Force Base

Loading…

Ближайшие Пролёты (ближайшие 24 часа)

TLE

СвежийSource: Space-Track

Эпоха: Sep 14, 2026, 14:35 UTC

1 07138U 73086DC  26257.60782166 -.00000029  00000-0  12226-3 0  9999
2 07138 102.0772 199.0860 0053414 148.9389  23.6940 12.31900254376874

Отслеживайте DELTA 1 DEB в реальном времени с AllMySat

Download on the App Store